This is the latest recevied weather packets stored in our database for station/object DL2AKT-20. If no packets are shown the sender has not sent any weather packets the latest 10 day(s).
| Time | Temp. | Humidity | Pressure | Rain* | Wind** | Luminosity | Snow |
|---|---|---|---|---|---|---|---|
| 1777713565 | 21.67° C | 34% | 1025.2 hPa | - | - | - | - |
| 1777712665 | 21.11° C | 34% | 1025.4 hPa | - | - | - | - |
| 1777711765 | 21.11° C | 35% | 1025.5 hPa | - | - | - | - |
| 1777710865 | 20.56° C | 35% | 1025.7 hPa | - | - | - | - |
| 1777709965 | 20.56° C | 36% | 1025.7 hPa | - | - | - | - |
| 1777709065 | 20° C | 35% | 1025.7 hPa | - | - | - | - |
| 1777708165 | 20° C | 35% | 1025.9 hPa | - | - | - | - |
| 1777707264 | 19.44° C | 36% | 1026 hPa | - | - | - | - |
| 1777706364 | 18.89° C | 36% | 1025.9 hPa | - | - | - | - |
| 1777705463 | 18.89° C | 36% | 1026.2 hPa | - | - | - | - |
| 1777704567 | 18.33° C | 36% | 1026.1 hPa | - | - | - | - |
| 1777703667 | 17.78° C | 36% | 1026.2 hPa | - | - | - | - |
| 1777702767 | 17.22° C | 36% | 1026.2 hPa | - | - | - | - |
| 1777701867 | 17.22° C | 37% | 1026.2 hPa | - | - | - | - |
| 1777700967 | 16.67° C | 36% | 1026.2 hPa | - | - | - | - |
| 1777700067 | 16.11° C | 38% | 1026.4 hPa | - | - | - | - |
| 1777699167 | 16.11° C | 38% | 1026.3 hPa | - | - | - | - |
| 1777698267 | 15.56° C | 38% | 1026.3 hPa | - | - | - | - |
| 1777697366 | 15° C | 38% | 1026.2 hPa | - | - | - | - |
| 1777696466 | 15° C | 37% | 1026.2 hPa | - | - | - | - |
| 1777695566 | 15° C | 38% | 1026.2 hPa | - | - | - | - |
| 1777694666 | 15° C | 37% | 1026.2 hPa | - | - | - | - |
| 1777693765 | 15° C | 37% | 1026.4 hPa | - | - | - | - |
| 1777692865 | 15.56° C | 37% | 1026.3 hPa | - | - | - | - |
| 1777691965 | 15.56° C | 37% | 1026.4 hPa | - | - | - | - |
* Rain since midnight (hover to see other rain measurements)
** Current wind speed in m/s (hover to see current wind gust speed)